Nashua, NH

10:59 PM EDT on May 25, 2017 (GMT -0400)
Boire

Weather History for KASH - August, 2012

Change the Weather History Date:

Sunday, August 19, 2012

  Actual Average Record
Temperature  
Mean Temperature 64 °F -  
Max Temperature 75 °F 79 °F 92 °F (1966)
Min Temperature 54 °F 54 °F 40 °F (1968)
Growing Degree Days 14 (Base 50)    
Moisture  
Dew Point 55 °F    
Average Humidity 67    
Maximum Humidity 87    
Minimum Humidity 48    
Precipitation  
Precipitation 0.00 in - - ()
Sea Level Pressure  
Sea Level Pressure 29.95 in    
Wind  
Wind Speed 4 mph (NNW)    
Max Wind Speed 8 mph    
Max Gust Speed -    
Visibility 10 miles    
Events      
Averages and records for this station are not official NWS values.
T = Trace of Precipitation, MM = Missing Value Source: NWS Daily Summary

Daily Weather History Graph

Daily Weather History Graph

Search for Another Location

Airport or City:

Trip Planner

Search our weather history database for the weather conditions in past years. The results will help you decide how hot, cold, wet, or windy it might be!

Date:

Astronomy

Aug. 19, 2012 Rise Set
Actual Time 5:57 AM EDT 7:41 PM EDT
Civil Twilight 5:27 AM EDT 8:11 PM EDT
Nautical Twilight 4:50 AM EDT 8:47 PM EDT
Astronomical Twilight 4:10 AM EDT 9:26 PM EDT
Moon 8:13 AM EDT (8/19) 8:22 PM EDT (8/19)
Length of Visible Light 14h 44m
Length of Day
13h 43m
Waxing Crescent, 5% of the Moon is Illuminated
Aug 19
Waxing Crescent
Aug 24
First Quarter
Aug 31
Full
Sep 8
Last Quarter
Sep 15
New

Hourly Weather History & Observations

Time (EDT) Temp. Dew Point Humidity Pressure Visibility Wind Dir Wind Speed Gust Speed Precip Events Conditions
12:51 AM 59.9 °F 54.0 °F 81% 29.93 in 10.0 mi NW 4.6 mph - N/A   Clear
1:51 AM 57.9 °F 52.9 °F 83% 29.93 in 10.0 mi NNW 4.6 mph - N/A   Clear
2:51 AM 56.8 °F 52.9 °F 87% 29.93 in 10.0 mi NW 4.6 mph - N/A   Clear
4:51 AM 55.9 °F 50.9 °F 83% 29.96 in 10.0 mi NW 5.8 mph - N/A   Clear
5:51 AM 56.8 °F 50.0 °F 78% 29.96 in 10.0 mi WNW 6.9 mph - N/A   Clear
6:51 AM 54.9 °F 50.0 °F 84% 29.98 in 10.0 mi NW 8.1 mph - N/A   Clear
7:51 AM 59.9 °F 50.9 °F 72% 29.99 in 10.0 mi NW 8.1 mph - N/A   Clear
8:51 AM 64.9 °F 52.9 °F 65% 29.98 in 10.0 mi NW 5.8 mph - N/A   Clear
9:51 AM 68.9 °F 54.0 °F 59% 29.98 in 10.0 mi NNE 4.6 mph - N/A   Clear
10:51 AM 70.9 °F 52.9 °F 53% 29.98 in 10.0 mi NNE 4.6 mph - N/A   Clear
11:51 AM 70.9 °F 52.9 °F 53% 29.97 in 10.0 mi ESE 5.8 mph - N/A   Clear
12:51 PM 74.8 °F 54.0 °F 48% 29.97 in 10.0 mi Variable 4.6 mph - N/A   Scattered Clouds
1:51 PM 74.8 °F 54.9 °F 50% 29.97 in 10.0 mi Calm Calm - N/A   Scattered Clouds
2:51 PM 73.9 °F 54.9 °F 51% 29.96 in 10.0 mi Variable 4.6 mph - N/A   Scattered Clouds
3:51 PM 75.9 °F 54.9 °F 48% 29.95 in 10.0 mi Variable 4.6 mph - N/A   Partly Cloudy
4:51 PM 74.8 °F 54.0 °F 48% 29.92 in 10.0 mi Calm Calm - N/A   Scattered Clouds
5:51 PM 73.9 °F 55.9 °F 53% 29.93 in 10.0 mi Calm Calm - N/A   Clear
6:51 PM 72.0 °F 59.9 °F 66% 29.93 in 10.0 mi Calm Calm - N/A   Clear
7:51 PM 70.0 °F 59.9 °F 70% 29.93 in 10.0 mi Calm Calm - N/A   Clear
8:51 PM 68.0 °F 57.9 °F 70% 29.94 in 10.0 mi Calm Calm - N/A   Clear
9:51 PM 68.0 °F 59.0 °F 73% 29.95 in 10.0 mi Calm Calm - N/A   Clear
10:51 PM 66.9 °F 59.0 °F 76% 29.94 in 10.0 mi Calm Calm - N/A   Clear
11:51 PM 63.9 °F 59.0 °F 84% 29.94 in 10.0 mi Calm Calm - N/A   Clear